Location: G�ndlingen
(48.0142°N, 7.6396°E)
Time: 16:29:18
(UTC+00:00)

EO 1 Del DPAF - Pass Details

Date: 05 July 2020
Orbit: 512 x 518 km, 98.0° (Epoch: 13 August)

Event Time Altitude Azimuth Distance (km) Brightness Sun altitude
Rises 22:37:54 0° 11° (NNE) 2,646 8.0 -18.2°
Reaches altitude 10° 22:40:00 10° 10° (N) 1,753 6.9 -18.3°
Maximum altitude 22:43:46 71° 287° (WNW) 550 3.3 -18.4°
Enters shadow 22:45:02 39° 214° (SSW) 788 3.7 -18.5°
